When you browse on this site, cookies collect data to enhance your experience and personalize the content and advertising you see.
Visit our Privacy Policy to learn more. By continuing to use the site, you agree to this use of cookies and data.

Météo par heure à Algérie

Ce jour, 12 Août, Mercredi

Heure Température Précipitation Vent Pression Humidité
00:00 +34°C° 0 mm 3 m/s 745 mmHg 33%
01:00 +34°C° 0 mm 3 m/s 745 mmHg 33%
02:00 +34°C° 0 mm 3 m/s 745 mmHg 33%
03:00 +33°C° 0 mm 4 m/s 746 mmHg 33%
04:00 +32°C° 0 mm 5 m/s 746 mmHg 41%
05:00 +30°C° 0 mm 6 m/s 747 mmHg 49%
06:00 +29°C° 0 mm 8 m/s 747 mmHg 58%
07:00 +30°C° 0 mm 6 m/s 747 mmHg 59%
08:00 +30°C° 0 mm 5 m/s 748 mmHg 59%
09:00 +32°C° 0 mm 4 m/s 748 mmHg 60%
10:00 +33°C° 0 mm 4 m/s 748 mmHg 55%
11:00 +35°C° 0 mm 4 m/s 748 mmHg 49%
12:00 +36°C° 0 mm 4 m/s 748 mmHg 44%
13:00 +36°C° 0 mm 4 m/s 747 mmHg 45%
14:00 +36°C° 0 mm 5 m/s 747 mmHg 46%
15:00 +36°C° 0 mm 6 m/s 746 mmHg 48%
16:00 +35°C° 0 mm 5 m/s 746 mmHg 52%
17:00 +34°C° 0 mm 5 m/s 746 mmHg 56%
18:00 +33°C° 0 mm 4 m/s 746 mmHg 60%
19:00 +33°C° 0 mm 4 m/s 746 mmHg 59%
20:00 +31°C° 0 mm 3 m/s 746 mmHg 58%
21:00 +31°C° 0 mm 2 m/s 747 mmHg 58%
22:00 +30°C° 0 mm 3 m/s 747 mmHg 63%
23:00 +29°C° 0 mm 3 m/s 747 mmHg 68%

Demain, 13 Août, Jeudi

Heure Température Précipitation Vent Pression Humidité
00:00 +28°C° 0 mm 3 m/s 747 mmHg 73%
01:00 +28°C° 0 mm 3 m/s 747 mmHg 77%
02:00 +27°C° 0 mm 4 m/s 747 mmHg 80%
03:00 +27°C° 0 mm 4 m/s 747 mmHg 84%
04:00 +27°C° 0 mm 3 m/s 748 mmHg 85%
05:00 +27°C° 0 mm 3 m/s 748 mmHg 85%
06:00 +27°C° 0 mm 3 m/s 748 mmHg 86%
07:00 +28°C° 0 mm 3 m/s 748 mmHg 77%
08:00 +30°C° 0 mm 3 m/s 749 mmHg 67%
09:00 +33°C° 0 mm 3 m/s 749 mmHg 58%
10:00 +33°C° 0 mm 3 m/s 748 mmHg 57%
11:00 +34°C° 0 mm 3 m/s 748 mmHg 56%
12:00 +35°C° 0 mm 3 m/s 748 mmHg 55%
13:00 +34°C° 0 mm 3 m/s 748 mmHg 57%
14:00 +33°C° 0 mm 3 m/s 747 mmHg 59%
15:00 +32°C° 0 mm 2 m/s 747 mmHg 61%
16:00 +31°C° 0 mm 3 m/s 747 mmHg 59%
17:00 +31°C° 0 mm 3 m/s 747 mmHg 58%
18:00 +31°C° 0 mm 3 m/s 748 mmHg 56%
19:00 +31°C° 0 mm 3 m/s 748 mmHg 53%
20:00 +33°C° 0 mm 3 m/s 748 mmHg 50%
21:00 +33°C° 0 mm 3 m/s 748 mmHg 47%
22:00 +31°C° 0 mm 3 m/s 748 mmHg 49%
23:00 +31°C° 0 mm 2 m/s 748 mmHg 52%

Après-demain, 14 Août, Vendredi

Heure Température Précipitation Vent Pression Humidité
00:00 +30°C° 0 mm 2 m/s 748 mmHg 54%
01:00 +30°C° 0 mm 2 m/s 748 mmHg 57%
02:00 +29°C° 0 mm 2 m/s 748 mmHg 60%
03:00 +28°C° 0 mm 2 m/s 747 mmHg 62%
04:00 +29°C° 0 mm 2 m/s 748 mmHg 62%
05:00 +29°C° 0 mm 2 m/s 748 mmHg 62%
06:00 +29°C° 0 mm 2 m/s 748 mmHg 61%
07:00 +30°C° 0 mm 2 m/s 748 mmHg 57%
08:00 +32°C° 0 mm 2 m/s 748 mmHg 53%
09:00 +34°C° 0 mm 2 m/s 748 mmHg 49%
10:00 +34°C° 0 mm 3 m/s 748 mmHg 49%
11:00 +35°C° 0 mm 3 m/s 747 mmHg 49%
12:00 +35°C° 0 mm 4 m/s 747 mmHg 48%
13:00 +35°C° 0 mm 4 m/s 747 mmHg 48%
14:00 +35°C° 0 mm 4 m/s 747 mmHg 48%
15:00 +34°C° 0 mm 4 m/s 746 mmHg 47%
16:00 +34°C° 0 mm 4 m/s 746 mmHg 48%
17:00 +34°C° 0 mm 4 m/s 746 mmHg 49%
18:00 +33°C° 0 mm 4 m/s 747 mmHg 50%
19:00 +33°C° 0 mm 3 m/s 747 mmHg 48%
20:00 +33°C° 0 mm 3 m/s 747 mmHg 45%
21:00 +32°C° 0 mm 2 m/s 747 mmHg 43%
22:00 +32°C° 0 mm 2 m/s 747 mmHg 45%
23:00 +31°C° 0 mm 2 m/s 747 mmHg 47%

15 Août, Samedi

Heure Température Précipitation Vent Pression Humidité
00:00 +31°C° 0 mm 2 m/s 747 mmHg 49%
01:00 +31°C° 0 mm 2 m/s 747 mmHg 48%
02:00 +31°C° 0 mm 2 m/s 746 mmHg 47%
03:00 +31°C° 0 mm 2 m/s 746 mmHg 45%
04:00 +31°C° 0 mm 2 m/s 746 mmHg 46%
05:00 +31°C° 0 mm 2 m/s 746 mmHg 47%
06:00 +31°C° 0 mm 1 m/s 746 mmHg 48%
07:00 +32°C° 0 mm 1 m/s 746 mmHg 45%
08:00 +34°C° 0 mm 1 m/s 747 mmHg 43%
09:00 +35°C° 0 mm 1 m/s 747 mmHg 40%
10:00 +36°C° 0 mm 2 m/s 746 mmHg 40%
11:00 +36°C° 0 mm 3 m/s 746 mmHg 41%
12:00 +37°C° 0 mm 4 m/s 746 mmHg 42%
13:00 +36°C° 0 mm 4 m/s 746 mmHg 45%
14:00 +35°C° 0 mm 4 m/s 745 mmHg 47%
15:00 +35°C° 0 mm 4 m/s 745 mmHg 50%
16:00 +34°C° 0 mm 3 m/s 745 mmHg 55%
17:00 +32°C° 0 mm 2 m/s 745 mmHg 59%
18:00 +31°C° 0 mm 2 m/s 745 mmHg 64%
19:00 +30°C° 0 mm 2 m/s 745 mmHg 65%
20:00 +30°C° 0 mm 1 m/s 746 mmHg 65%
21:00 +30°C° 0 mm 1 m/s 746 mmHg 66%
22:00 +29°C° 0 mm 1 m/s 746 mmHg 67%
23:00 +29°C° 0 mm 2 m/s 745 mmHg 68%

16 Août, Dimanche

Heure Température Précipitation Vent Pression Humidité
00:00 +28°C° 0 mm 2 m/s 745 mmHg 69%
01:00 +28°C° 0 mm 2 m/s 745 mmHg 71%
02:00 +27°C° 0 mm 2 m/s 745 mmHg 73%
03:00 +27°C° 0 mm 2 m/s 745 mmHg 74%
04:00 +27°C° 0 mm 2 m/s 745 mmHg 71%
05:00 +27°C° 0 mm 2 m/s 745 mmHg 67%
06:00 +28°C° 0 mm 2 m/s 746 mmHg 63%
07:00 +29°C° 0 mm 2 m/s 746 mmHg 56%
08:00 +31°C° 0 mm 2 m/s 746 mmHg 49%
09:00 +33°C° 0 mm 1 m/s 747 mmHg 42%
10:00 +34°C° 0 mm 2 m/s 746 mmHg 40%
11:00 +35°C° 0 mm 2 m/s 746 mmHg 39%
12:00 +35°C° 0 mm 3 m/s 746 mmHg 38%
13:00 +35°C° 0 mm 3 m/s 746 mmHg 40%
14:00 +34°C° 0 mm 3 m/s 745 mmHg 41%
15:00 +33°C° 0 mm 3 m/s 745 mmHg 42%
16:00 +32°C° 0 mm 2 m/s 745 mmHg 44%
17:00 +31°C° 0 mm 2 m/s 745 mmHg 45%
18:00 +30°C° 0 mm 1 m/s 745 mmHg 47%
19:00 +30°C° 0 mm 2 m/s 745 mmHg 47%
20:00 +30°C° 0 mm 2 m/s 745 mmHg 48%
21:00 +29°C° 0 mm 2 m/s 746 mmHg 48%
22:00 +29°C° 0 mm 2 m/s 745 mmHg 48%
23:00 +29°C° 0 mm 2 m/s 745 mmHg 48%

17 Août, Lundi

Heure Température Précipitation Vent Pression Humidité
00:00 +29°C° 0 mm 2 m/s 745 mmHg 48%
01:00 +28°C° 0 mm 2 m/s 745 mmHg 52%
02:00 +27°C° 0 mm 3 m/s 745 mmHg 57%
03:00 +26°C° 0 mm 3 m/s 745 mmHg 62%
04:00 +27°C° 0 mm 3 m/s 745 mmHg 60%
05:00 +27°C° 0 mm 3 m/s 746 mmHg 59%
06:00 +27°C° 0 mm 2 m/s 746 mmHg 58%
07:00 +28°C° 0 mm 2 m/s 746 mmHg 52%
08:00 +30°C° 0 mm 2 m/s 747 mmHg 46%
09:00 +31°C° 0 mm 3 m/s 747 mmHg 40%
10:00 +31°C° 0 mm 3 m/s 747 mmHg 40%
11:00 +33°C° 0 mm 3 m/s 746 mmHg 39%
12:00 +33°C° 0 mm 3 m/s 746 mmHg 39%
13:00 +33°C° 0 mm 3 m/s 746 mmHg 39%
14:00 +33°C° 0 mm 3 m/s 746 mmHg 40%
15:00 +33°C° 0 mm 3 m/s 745 mmHg 41%
16:00 +31°C° 0 mm 2 m/s 745 mmHg 43%
17:00 +30°C° 0 mm 2 m/s 745 mmHg 45%
18:00 +30°C° 0 mm 1 m/s 745 mmHg 48%
19:00 +29°C° 0 mm 1 m/s 746 mmHg 50%
20:00 +28°C° 0 mm 1 m/s 746 mmHg 52%
21:00 +25°C° 0 mm 0 m/s 747 mmHg 54%
22:00 +26°C° 0 mm 0 m/s 747 mmHg 53%
23:00 +28°C° 0 mm 1 m/s 747 mmHg 51%
Voir plus